Home > Weather > Feldkirch > Past weeks

Flag for Austria Weather for the Past 2 Weeks in Feldkirch, Vorarlberg, Austria

Now
35 °F

Chilly.


Feels Like: 35 °F
Forecast: 29 / 46 °F
Wind: No wind

Location: Feldkirch

Current Time: Feb 11, 2016 at 8:27:45 PM

Latest Report: Feb 11, 2016 at 7:00 PM


Visibility: N/A

Pressure: 29.78 "Hg

Humidity: 63%

Dew point: 24 °F

Location of FeldkirchLocation

Historic Weather in Feldkirch — Graph

°F

Feldkirch Temperature Yesterday

Maximum temperature yesterday: 41 °F (at 1:00 PM)
Minimum temperature yesterday: 36 °F (at 8:00 PM)
Average temperature yesterday: 39 °F

High & Low Weather Summary for the Past Weeks

 TemperatureHumidityPressure
High61 °F (Feb 1, 3:00 PM)98% (Jan 30, 12:00 AM)30.52 "Hg (Jan 30, 12:00 AM)
Low28 °F (Feb 11, 8:00 AM)29% (Feb 9, 2:00 PM)29.26 "Hg (Feb 9, 7:00 PM)
Average44 °F72%30.08 "Hg
* Reported Jan 27 6:00 PM — Feb 11 6:00 PM, Feldkirch, Weather by CustomWeather, © 2016

Note: Actual official high and low records may vary slightly from our data, if they occured in-between our weather recording intervals... More about our weather records

Advertising

Feldkirch Weather History for the Previous 24 Hours

 ConditionsComfort  
Time TempWeatherWind HumidityBarometerVisibility
6:00 PM
Thu, Feb 11
38 °FChilly.1 mph55%29.77 "HgN/A
5:00 PM41 °FQuite cool.3 mph48%29.75 "HgN/A
4:00 PM44 °FQuite cool.1 mph36%29.74 "HgN/A
3:00 PM45 °FQuite cool.1 mph34%29.74 "HgN/A
2:00 PM43 °FQuite cool.No wind37%29.78 "HgN/A
1:00 PM43 °FQuite cool.2 mph43%29.81 "HgN/A
12:00 PM42 °FQuite cool.1 mph46%29.83 "HgN/A
11:00 AM39 °FChilly.No wind52%29.86 "HgN/A
10:00 AM37 °FSunny.2 mph55%29.87 "Hg19 mi
9:00 AM34 °FChilly.1 mph64%29.88 "HgN/A
8:00 AM28 °FChilly.1 mph80%29.89 "HgN/A
7:00 AM29 °FPassing clouds.2 mph77%29.89 "Hg19 mi
6:00 AM30 °FChilly.1 mph77%29.88 "HgN/A
5:00 AM30 °FChilly.1 mph77%29.87 "HgN/A
9:00 PM
Wed, Feb 10
37 °FChilly.3 mph66%29.74 "HgN/A
8:00 PM36 °FChilly.3 mph71%29.74 "HgN/A
Weather by CustomWeather, © 2016

See weather overviewHow to use our weather pages